Year,Month,Day,Hour,Minute,Value (Times are PST for temperature in C)
2015,07,28,00,00,14.70
2015,07,28,00,01,14.70
2015,07,28,00,02,14.70
2015,07,28,00,03,14.60
2015,07,28,00,04,14.60
2015,07,28,00,05,14.60
2015,07,28,00,06,14.60
2015,07,28,00,07,14.60
2015,07,28,00,08,14.60
2015,07,28,00,09,14.50
2015,07,28,00,10,14.50
2015,07,28,00,11,14.50
2015,07,28,00,12,14.40
2015,07,28,00,13,14.40
2015,07,28,00,14,14.40
2015,07,28,00,15,14.40
2015,07,28,00,16,14.30
2015,07,28,00,17,14.30
2015,07,28,00,18,14.30
2015,07,28,00,19,14.30
2015,07,28,00,20,14.30
2015,07,28,00,21,14.30
2015,07,28,00,22,14.20
2015,07,28,00,23,14.20
2015,07,28,00,24,14.20
2015,07,28,00,25,14.20
2015,07,28,00,26,14.20
2015,07,28,00,27,14.10
2015,07,28,00,28,14.10
2015,07,28,00,29,14.10
2015,07,28,00,30,14.10
2015,07,28,00,31,14.10
2015,07,28,00,32,14.10
2015,07,28,00,33,14.10
2015,07,28,00,34,14.00
2015,07,28,00,35,14.00
2015,07,28,00,36,14.00
2015,07,28,00,37,14.00
2015,07,28,00,38,13.90
2015,07,28,00,39,13.90
2015,07,28,00,40,13.90
2015,07,28,00,41,13.90
2015,07,28,00,42,13.80
2015,07,28,00,43,13.80
2015,07,28,00,44,13.80
2015,07,28,00,45,13.80
2015,07,28,00,46,13.80
2015,07,28,00,47,13.80
2015,07,28,00,48,13.70
2015,07,28,00,49,13.70
2015,07,28,00,50,13.70
2015,07,28,00,51,13.70
2015,07,28,00,52,13.70
2015,07,28,00,53,13.70
2015,07,28,00,54,13.70
2015,07,28,00,55,13.60
2015,07,28,00,56,13.60
2015,07,28,00,57,13.60
2015,07,28,00,58,13.60
2015,07,28,00,59,13.60
2015,07,28,01,00,13.50
2015,07,28,01,01,13.50
2015,07,28,01,02,13.50
2015,07,28,01,03,13.50
2015,07,28,01,04,13.40
2015,07,28,01,05,13.40
2015,07,28,01,06,13.40
2015,07,28,01,07,13.40
2015,07,28,01,08,13.40
2015,07,28,01,09,13.40
2015,07,28,01,10,13.40
2015,07,28,01,11,13.40
2015,07,28,01,12,13.30
2015,07,28,01,13,13.30
2015,07,28,01,14,13.30
2015,07,28,01,15,13.30
2015,07,28,01,16,13.30
2015,07,28,01,17,13.30
2015,07,28,01,18,13.20
2015,07,28,01,19,13.20
2015,07,28,01,20,13.20
2015,07,28,01,21,13.20
2015,07,28,01,22,13.20
2015,07,28,01,23,13.20
2015,07,28,01,24,13.10
2015,07,28,01,25,13.10
2015,07,28,01,26,13.10
2015,07,28,01,27,13.10
2015,07,28,01,28,13.10
2015,07,28,01,29,13.10
2015,07,28,01,30,13.00
2015,07,28,01,31,13.00
2015,07,28,01,32,13.00
2015,07,28,01,33,12.90
2015,07,28,01,34,12.90
2015,07,28,01,35,12.90
2015,07,28,01,36,12.90
2015,07,28,01,37,12.80
2015,07,28,01,38,12.80
2015,07,28,01,39,12.80
2015,07,28,01,40,12.80
2015,07,28,01,41,12.80
2015,07,28,01,42,12.80
2015,07,28,01,43,12.80
2015,07,28,01,44,12.80
2015,07,28,01,45,12.80
2015,07,28,01,46,12.70
2015,07,28,01,47,12.70
2015,07,28,01,48,12.70
2015,07,28,01,49,12.70
2015,07,28,01,50,12.70
2015,07,28,01,51,12.70
2015,07,28,01,52,12.60
2015,07,28,01,53,12.60
2015,07,28,01,54,12.60
2015,07,28,01,55,12.60
2015,07,28,01,56,12.60
2015,07,28,01,57,12.60
2015,07,28,01,58,12.60
2015,07,28,01,59,12.50
2015,07,28,02,00,12.50
2015,07,28,02,01,12.50
2015,07,28,02,02,12.50
2015,07,28,02,03,12.50
2015,07,28,02,04,12.40
2015,07,28,02,05,12.40
2015,07,28,02,06,12.40
2015,07,28,02,07,12.40
2015,07,28,02,08,12.40
2015,07,28,02,09,12.40
2015,07,28,02,10,12.40
2015,07,28,02,11,12.40
2015,07,28,02,12,12.40
2015,07,28,02,13,12.40
2015,07,28,02,14,12.30
2015,07,28,02,15,12.30
2015,07,28,02,16,12.30
2015,07,28,02,17,12.30
2015,07,28,02,18,12.30
2015,07,28,02,19,12.30
2015,07,28,02,20,12.30
2015,07,28,02,21,12.30
2015,07,28,02,22,12.20
2015,07,28,02,23,12.20
2015,07,28,02,24,12.20
2015,07,28,02,25,12.20
2015,07,28,02,26,12.20
2015,07,28,02,27,12.20
2015,07,28,02,28,12.20
2015,07,28,02,29,12.20
2015,07,28,02,30,12.20
2015,07,28,02,31,12.20
2015,07,28,02,32,12.10
2015,07,28,02,33,12.10
2015,07,28,02,34,12.10
2015,07,28,02,35,12.10
2015,07,28,02,36,12.10
2015,07,28,02,37,12.10
2015,07,28,02,38,12.10
2015,07,28,02,39,12.10
2015,07,28,02,40,12.00
2015,07,28,02,41,12.00
2015,07,28,02,42,12.00
2015,07,28,02,43,12.00
2015,07,28,02,44,12.00
2015,07,28,02,45,11.90
2015,07,28,02,46,11.90
2015,07,28,02,47,11.90
2015,07,28,02,48,11.90
2015,07,28,02,49,11.90
2015,07,28,02,50,11.90
2015,07,28,02,51,11.90
2015,07,28,02,52,11.90
2015,07,28,02,53,11.80
2015,07,28,02,54,11.80
2015,07,28,02,55,11.80
2015,07,28,02,56,11.80
2015,07,28,02,57,11.80
2015,07,28,02,58,11.80
2015,07,28,02,59,11.80
2015,07,28,03,00,11.80
2015,07,28,03,01,11.70
2015,07,28,03,02,11.70
2015,07,28,03,03,11.70
2015,07,28,03,04,11.70
2015,07,28,03,05,11.70
2015,07,28,03,06,11.70
2015,07,28,03,07,11.70
2015,07,28,03,08,11.70
2015,07,28,03,09,11.70
2015,07,28,03,10,11.60
2015,07,28,03,11,11.60
2015,07,28,03,12,11.60
2015,07,28,03,13,11.60
2015,07,28,03,14,11.60
2015,07,28,03,15,11.60
2015,07,28,03,16,11.60
2015,07,28,03,17,11.60
2015,07,28,03,18,11.60
2015,07,28,03,19,11.60
2015,07,28,03,20,11.50
2015,07,28,03,21,11.50
2015,07,28,03,22,11.50
2015,07,28,03,23,11.50
2015,07,28,03,24,11.50
2015,07,28,03,25,11.40
2015,07,28,03,26,11.40
2015,07,28,03,27,11.40
2015,07,28,03,28,11.40
2015,07,28,03,29,11.40
2015,07,28,03,30,11.40
2015,07,28,03,31,11.40
2015,07,28,03,32,11.40
2015,07,28,03,33,11.40
2015,07,28,03,34,11.40
2015,07,28,03,35,11.40
2015,07,28,03,36,11.30
2015,07,28,03,37,11.30
2015,07,28,03,38,11.30
2015,07,28,03,39,11.30
2015,07,28,03,40,11.30
2015,07,28,03,41,11.30
2015,07,28,03,42,11.30
2015,07,28,03,43,11.30
2015,07,28,03,44,11.30
2015,07,28,03,45,11.30
2015,07,28,03,46,11.30
2015,07,28,03,47,11.30
2015,07,28,03,48,11.30
2015,07,28,03,49,11.30
2015,07,28,03,50,11.30
2015,07,28,03,51,11.30
2015,07,28,03,52,11.30
2015,07,28,03,53,11.20
2015,07,28,03,54,11.20
2015,07,28,03,55,11.20
2015,07,28,03,56,11.20
2015,07,28,03,57,11.20
2015,07,28,03,58,11.20
2015,07,28,03,59,11.20
2015,07,28,04,00,11.20
2015,07,28,04,01,11.20
2015,07,28,04,02,11.20
2015,07,28,04,03,11.20
2015,07,28,04,04,11.10
2015,07,28,04,05,11.10
2015,07,28,04,06,11.10
2015,07,28,04,07,11.10
2015,07,28,04,08,11.10
2015,07,28,04,09,11.10
2015,07,28,04,10,11.10
2015,07,28,04,11,11.10
2015,07,28,04,12,11.00
2015,07,28,04,13,11.00
2015,07,28,04,14,11.00
2015,07,28,04,15,11.00
2015,07,28,04,16,10.90
2015,07,28,04,17,10.90
2015,07,28,04,18,10.90
2015,07,28,04,19,10.90
2015,07,28,04,20,10.90
2015,07,28,04,21,10.90
2015,07,28,04,22,10.90
2015,07,28,04,23,10.90
2015,07,28,04,24,10.90
2015,07,28,04,25,10.90
2015,07,28,04,26,10.90
2015,07,28,04,27,10.80
2015,07,28,04,28,10.80
2015,07,28,04,29,10.80
2015,07,28,04,30,10.80
2015,07,28,04,31,10.80
2015,07,28,04,32,10.80
2015,07,28,04,33,10.80
2015,07,28,04,34,10.80
2015,07,28,04,35,10.80
2015,07,28,04,36,10.80
2015,07,28,04,37,10.80
2015,07,28,04,38,10.70
2015,07,28,04,39,10.70
2015,07,28,04,40,10.70
2015,07,28,04,41,10.70
2015,07,28,04,42,10.70
2015,07,28,04,43,10.70
2015,07,28,04,44,10.70
2015,07,28,04,45,10.70
2015,07,28,04,46,10.70
2015,07,28,04,47,10.70
2015,07,28,04,48,10.70
2015,07,28,04,49,10.70
2015,07,28,04,50,10.70
2015,07,28,04,51,10.70
2015,07,28,04,52,10.70
2015,07,28,04,53,10.70
2015,07,28,04,54,10.70
2015,07,28,04,55,10.60
2015,07,28,04,56,10.60
2015,07,28,04,57,10.60
2015,07,28,04,58,10.60
2015,07,28,04,59,10.60
2015,07,28,05,00,10.60
2015,07,28,05,01,10.60
2015,07,28,05,02,10.60
2015,07,28,05,03,10.60
2015,07,28,05,04,10.60
2015,07,28,05,05,10.60
2015,07,28,05,06,10.60
2015,07,28,05,07,10.60
2015,07,28,05,08,10.60
2015,07,28,05,09,10.60
2015,07,28,05,10,10.60
2015,07,28,05,11,10.60
2015,07,28,05,12,10.60
2015,07,28,05,13,10.60
2015,07,28,05,14,10.60
2015,07,28,05,15,10.60
2015,07,28,05,16,10.60
2015,07,28,05,17,10.60
2015,07,28,05,18,10.60
2015,07,28,05,19,10.70
2015,07,28,05,20,10.70
2015,07,28,05,21,10.70
2015,07,28,05,22,10.70
2015,07,28,05,23,10.70
2015,07,28,05,24,10.70
2015,07,28,05,25,10.70
2015,07,28,05,26,10.70
2015,07,28,05,27,10.70
2015,07,28,05,28,10.70
2015,07,28,05,29,10.70
2015,07,28,05,30,10.70
2015,07,28,05,31,10.70
2015,07,28,05,32,10.70
2015,07,28,05,33,10.70
2015,07,28,05,34,10.70
2015,07,28,05,35,10.70
2015,07,28,05,36,10.70
2015,07,28,05,37,10.70
2015,07,28,05,38,10.70
2015,07,28,05,39,10.80
2015,07,28,05,40,10.80
2015,07,28,05,41,10.80
2015,07,28,05,42,10.80
2015,07,28,05,43,10.80
2015,07,28,05,44,10.80
2015,07,28,05,45,10.80
2015,07,28,05,46,10.80
2015,07,28,05,47,10.90
2015,07,28,05,48,10.90
2015,07,28,05,49,10.90
2015,07,28,05,50,10.90
2015,07,28,05,51,10.90
2015,07,28,05,52,10.90
2015,07,28,05,53,10.90
2015,07,28,05,54,10.90
2015,07,28,05,55,10.90
2015,07,28,05,56,10.90
2015,07,28,05,57,10.90
2015,07,28,05,58,11.00
2015,07,28,05,59,11.00
2015,07,28,06,00,11.00
2015,07,28,06,01,11.00
2015,07,28,06,02,11.00
2015,07,28,06,03,11.00
2015,07,28,06,04,11.00
2015,07,28,06,05,11.00
2015,07,28,06,06,11.00
2015,07,28,06,07,11.00
2015,07,28,06,08,11.00
2015,07,28,06,09,11.00
2015,07,28,06,10,11.00
2015,07,28,06,11,11.10
2015,07,28,06,12,11.10
2015,07,28,06,13,11.10
2015,07,28,06,14,11.10
2015,07,28,06,15,11.10
2015,07,28,06,16,11.10
2015,07,28,06,17,11.10
2015,07,28,06,18,11.10
2015,07,28,06,19,11.10
2015,07,28,06,20,11.10
2015,07,28,06,21,11.10
2015,07,28,06,22,11.10
2015,07,28,06,23,11.10
2015,07,28,06,24,11.10
2015,07,28,06,25,11.10
2015,07,28,06,26,11.10
2015,07,28,06,27,11.10
2015,07,28,06,28,11.10
2015,07,28,06,29,11.20
2015,07,28,06,30,11.20
2015,07,28,06,31,11.20
2015,07,28,06,32,11.20
2015,07,28,06,33,11.20
2015,07,28,06,34,11.20
2015,07,28,06,35,11.20
2015,07,28,06,36,11.20
2015,07,28,06,37,11.20
2015,07,28,06,38,11.20
2015,07,28,06,39,11.20
2015,07,28,06,40,11.20
2015,07,28,06,41,11.20
2015,07,28,06,42,11.20
2015,07,28,06,43,11.20
2015,07,28,06,44,11.20
2015,07,28,06,45,11.20
2015,07,28,06,46,11.20
2015,07,28,06,47,11.20
2015,07,28,06,48,11.20
2015,07,28,06,49,11.20
2015,07,28,06,50,11.20
2015,07,28,06,51,11.20
2015,07,28,06,52,11.20
2015,07,28,06,53,11.20
2015,07,28,06,54,11.20
2015,07,28,06,55,11.20
2015,07,28,06,56,11.20
2015,07,28,06,57,11.20
2015,07,28,06,58,11.20
2015,07,28,06,59,11.20
2015,07,28,07,00,11.20
2015,07,28,07,01,11.20
2015,07,28,07,02,11.20
2015,07,28,07,03,11.20
2015,07,28,07,04,11.20
2015,07,28,07,05,11.20
2015,07,28,07,06,11.20
2015,07,28,07,07,11.20
2015,07,28,07,08,11.20
2015,07,28,07,09,11.20
2015,07,28,07,10,11.20
2015,07,28,07,11,11.20
2015,07,28,07,12,11.20
2015,07,28,07,13,11.20
2015,07,28,07,14,11.30
2015,07,28,07,15,11.30
2015,07,28,07,16,11.30
2015,07,28,07,17,11.30
2015,07,28,07,18,11.40
2015,07,28,07,19,11.40
2015,07,28,07,20,11.50
2015,07,28,07,21,11.60
2015,07,28,07,22,11.60
2015,07,28,07,23,11.60
2015,07,28,07,24,11.70
2015,07,28,07,25,11.70
2015,07,28,07,26,11.80
2015,07,28,07,27,11.80
2015,07,28,07,28,11.80
2015,07,28,07,29,11.90
2015,07,28,07,30,11.90
2015,07,28,07,31,11.90
2015,07,28,07,32,12.00
2015,07,28,07,33,12.10
2015,07,28,07,34,12.10
2015,07,28,07,35,12.20
2015,07,28,07,36,12.20
2015,07,28,07,37,12.30
2015,07,28,07,38,12.40
2015,07,28,07,39,12.50
2015,07,28,07,40,12.50
2015,07,28,07,41,12.60
2015,07,28,07,42,12.60
2015,07,28,07,43,12.60
2015,07,28,07,44,12.60
2015,07,28,07,45,12.60
2015,07,28,07,46,12.60
2015,07,28,07,47,12.60
2015,07,28,07,48,12.60
2015,07,28,07,49,12.60
2015,07,28,07,50,12.60
2015,07,28,07,51,12.60
2015,07,28,07,52,12.60
2015,07,28,07,53,12.60
2015,07,28,07,54,12.60
2015,07,28,07,55,12.70
2015,07,28,07,56,12.70
2015,07,28,07,57,12.70
2015,07,28,07,58,12.70
2015,07,28,07,59,12.80
2015,07,28,08,00,12.80
2015,07,28,08,01,12.80
2015,07,28,08,02,12.90
2015,07,28,08,03,12.90
2015,07,28,08,04,13.00
2015,07,28,08,05,13.00
2015,07,28,08,06,13.10
2015,07,28,08,07,13.10
2015,07,28,08,08,13.20
2015,07,28,08,09,13.30
2015,07,28,08,10,13.40
2015,07,28,08,11,13.50
2015,07,28,08,12,13.60
2015,07,28,08,13,13.80
2015,07,28,08,14,13.90
2015,07,28,08,15,14.10
2015,07,28,08,16,14.20
2015,07,28,08,17,14.30
2015,07,28,08,18,14.40
2015,07,28,08,19,14.50
2015,07,28,08,20,14.60
2015,07,28,08,21,14.70
2015,07,28,08,22,14.80
2015,07,28,08,23,14.90
2015,07,28,08,24,15.00
2015,07,28,08,25,15.10
2015,07,28,08,26,15.10
2015,07,28,08,27,15.10
2015,07,28,08,28,15.10
2015,07,28,08,29,15.10
2015,07,28,08,30,15.10
2015,07,28,08,31,15.10
2015,07,28,08,32,15.10
2015,07,28,08,33,15.10
2015,07,28,08,34,15.10
2015,07,28,08,35,15.10
2015,07,28,08,36,15.00
2015,07,28,08,37,15.00
2015,07,28,08,38,15.00
2015,07,28,08,39,15.00
2015,07,28,08,40,15.00
2015,07,28,08,41,15.00
2015,07,28,08,42,15.00
2015,07,28,08,43,15.00
2015,07,28,08,44,15.00
2015,07,28,08,45,15.10
2015,07,28,08,46,15.10
2015,07,28,08,47,15.20
2015,07,28,08,48,15.20
2015,07,28,08,49,15.30
2015,07,28,08,50,15.40
2015,07,28,08,51,15.50
2015,07,28,08,52,15.70
2015,07,28,08,53,15.80
2015,07,28,08,54,15.90
2015,07,28,08,55,16.10
2015,07,28,08,56,16.10
2015,07,28,08,57,16.20
2015,07,28,08,58,16.30
2015,07,28,08,59,16.30
2015,07,28,09,00,16.40
2015,07,28,09,01,16.50
2015,07,28,09,02,16.60
2015,07,28,09,03,16.70
2015,07,28,09,04,16.70
2015,07,28,09,05,16.70
2015,07,28,09,06,16.70
2015,07,28,09,07,16.60
2015,07,28,09,08,16.60
2015,07,28,09,09,16.60
2015,07,28,09,10,16.70
2015,07,28,09,11,16.70
2015,07,28,09,12,16.80
2015,07,28,09,13,16.80
2015,07,28,09,14,16.90
2015,07,28,09,15,17.00
2015,07,28,09,16,17.10
2015,07,28,09,17,17.10
2015,07,28,09,18,17.20
2015,07,28,09,19,17.30
2015,07,28,09,20,17.30
2015,07,28,09,21,17.40
2015,07,28,09,22,17.40
2015,07,28,09,23,17.40
2015,07,28,09,24,17.50
2015,07,28,09,25,17.50
2015,07,28,09,26,17.50
2015,07,28,09,27,17.60
2015,07,28,09,28,17.60
2015,07,28,09,29,17.70
2015,07,28,09,30,17.70
2015,07,28,09,31,17.70
2015,07,28,09,32,17.70
2015,07,28,09,33,17.70
2015,07,28,09,34,17.80
2015,07,28,09,35,17.80
2015,07,28,09,36,17.90
2015,07,28,09,37,17.90
2015,07,28,09,38,17.90
2015,07,28,09,39,17.90
2015,07,28,09,40,17.90
2015,07,28,09,41,17.90
2015,07,28,09,42,17.90
2015,07,28,09,43,17.90
2015,07,28,09,44,17.90
2015,07,28,09,45,18.00
2015,07,28,09,46,18.00
2015,07,28,09,47,18.10
2015,07,28,09,48,18.10
2015,07,28,09,49,18.10
2015,07,28,09,50,18.20
2015,07,28,09,51,18.30
2015,07,28,09,52,18.40
2015,07,28,09,53,18.40
2015,07,28,09,54,18.40
2015,07,28,09,55,18.50
2015,07,28,09,56,18.60
2015,07,28,09,57,18.60
2015,07,28,09,58,18.70
2015,07,28,09,59,18.80
2015,07,28,10,00,18.80
2015,07,28,10,01,18.90
2015,07,28,10,02,19.00
2015,07,28,10,03,19.00
2015,07,28,10,04,19.10
2015,07,28,10,05,19.20
2015,07,28,10,06,19.20
2015,07,28,10,07,19.30
2015,07,28,10,08,19.40
2015,07,28,10,09,19.50
2015,07,28,10,10,19.60
2015,07,28,10,11,19.70
2015,07,28,10,12,19.80
2015,07,28,10,13,19.80
2015,07,28,10,14,19.90
2015,07,28,10,15,20.00
2015,07,28,10,16,20.10
2015,07,28,10,17,20.20
2015,07,28,10,18,20.30
2015,07,28,10,19,20.30
2015,07,28,10,20,20.30
2015,07,28,10,21,20.40
2015,07,28,10,22,20.40
2015,07,28,10,23,20.40
2015,07,28,10,24,20.30
2015,07,28,10,25,20.40
2015,07,28,10,26,20.40
2015,07,28,10,27,20.40
2015,07,28,10,28,20.50
2015,07,28,10,29,20.60
2015,07,28,10,30,20.70
2015,07,28,10,31,20.70
2015,07,28,10,32,20.70
2015,07,28,10,33,20.70
2015,07,28,10,34,20.70
2015,07,28,10,35,20.70
2015,07,28,10,36,20.70
2015,07,28,10,37,20.70
2015,07,28,10,38,20.70
2015,07,28,10,39,20.60
2015,07,28,10,40,20.60
2015,07,28,10,41,20.60
2015,07,28,10,42,20.50
2015,07,28,10,43,20.50
2015,07,28,10,44,20.50
2015,07,28,10,45,20.50
2015,07,28,10,46,20.50
2015,07,28,10,47,20.60
2015,07,28,10,48,20.60
2015,07,28,10,49,20.60
2015,07,28,10,50,20.70
2015,07,28,10,51,20.70
2015,07,28,10,52,20.70
2015,07,28,10,53,20.80
2015,07,28,10,54,20.80
2015,07,28,10,55,20.70
2015,07,28,10,56,20.70
2015,07,28,10,57,20.70
2015,07,28,10,58,20.70
2015,07,28,10,59,20.70
2015,07,28,11,00,20.80
2015,07,28,11,01,20.80
2015,07,28,11,02,20.90
2015,07,28,11,03,20.90
2015,07,28,11,04,21.00
2015,07,28,11,05,21.00
2015,07,28,11,06,21.00
2015,07,28,11,07,21.10
2015,07,28,11,08,21.10
2015,07,28,11,09,21.10
2015,07,28,11,10,21.20
2015,07,28,11,11,21.20
2015,07,28,11,12,21.20
2015,07,28,11,13,21.20
2015,07,28,11,14,21.10
2015,07,28,11,15,21.10
2015,07,28,11,16,21.10
2015,07,28,11,17,21.10
2015,07,28,11,18,21.20
2015,07,28,11,19,21.20
2015,07,28,11,20,21.20
2015,07,28,11,21,21.20
2015,07,28,11,22,21.30
2015,07,28,11,23,21.30
2015,07,28,11,24,21.30
2015,07,28,11,25,21.40
2015,07,28,11,26,21.50
2015,07,28,11,27,21.60
2015,07,28,11,28,21.60
2015,07,28,11,29,21.70
2015,07,28,11,30,21.70
2015,07,28,11,31,21.80
2015,07,28,11,32,21.80
2015,07,28,11,33,21.80
2015,07,28,11,34,21.90
2015,07,28,11,35,21.90
2015,07,28,11,36,21.90
2015,07,28,11,37,21.90
2015,07,28,11,38,21.90
2015,07,28,11,39,21.90
2015,07,28,11,40,21.90
2015,07,28,11,41,22.00
2015,07,28,11,42,22.00
2015,07,28,11,43,22.00
2015,07,28,11,44,22.10
2015,07,28,11,45,22.10
2015,07,28,11,46,22.10
2015,07,28,11,47,22.20
2015,07,28,11,48,22.20
2015,07,28,11,49,22.20
2015,07,28,11,50,22.20
2015,07,28,11,51,22.20
2015,07,28,11,52,22.20
2015,07,28,11,53,22.20
2015,07,28,11,54,22.30
2015,07,28,11,55,22.30
2015,07,28,11,56,22.40
2015,07,28,11,57,22.40
2015,07,28,11,58,22.40
2015,07,28,11,59,22.40
2015,07,28,12,00,22.40
2015,07,28,12,01,22.50
2015,07,28,12,02,22.50
2015,07,28,12,03,22.70
2015,07,28,12,04,22.80
2015,07,28,12,05,22.90
2015,07,28,12,06,23.00
2015,07,28,12,07,23.00
2015,07,28,12,08,23.00
2015,07,28,12,09,23.00
2015,07,28,12,10,23.10
2015,07,28,12,11,23.20
2015,07,28,12,12,23.30
2015,07,28,12,13,23.40
2015,07,28,12,14,23.50
2015,07,28,12,15,23.50
2015,07,28,12,16,23.50
2015,07,28,12,17,23.50
2015,07,28,12,18,23.50
2015,07,28,12,19,23.50
2015,07,28,12,20,23.40
2015,07,28,12,21,23.50
2015,07,28,12,22,23.50
2015,07,28,12,23,23.50
2015,07,28,12,24,23.50
2015,07,28,12,25,23.50
2015,07,28,12,26,23.60
2015,07,28,12,27,23.60
2015,07,28,12,28,23.60
2015,07,28,12,29,23.70
2015,07,28,12,30,23.70
2015,07,28,12,31,23.70
2015,07,28,12,32,23.80
2015,07,28,12,33,23.80
2015,07,28,12,34,23.90
2015,07,28,12,35,23.90
2015,07,28,12,36,23.90
2015,07,28,12,37,24.00
2015,07,28,12,38,24.00
2015,07,28,12,39,24.00
2015,07,28,12,40,24.00
2015,07,28,12,41,24.10
2015,07,28,12,42,24.20
2015,07,28,12,43,24.20
2015,07,28,12,44,24.20
2015,07,28,12,45,24.10
2015,07,28,12,46,24.10
2015,07,28,12,47,24.10
2015,07,28,12,48,24.20
2015,07,28,12,49,24.20
2015,07,28,12,50,24.20
2015,07,28,12,51,24.30
2015,07,28,12,52,24.30
2015,07,28,12,53,24.40
2015,07,28,12,54,24.50
2015,07,28,12,55,24.50
2015,07,28,12,56,24.60
2015,07,28,12,57,24.60
2015,07,28,12,58,24.60
2015,07,28,12,59,24.60
2015,07,28,13,00,24.60
2015,07,28,13,01,24.60
2015,07,28,13,02,24.60
2015,07,28,13,03,24.60
2015,07,28,13,04,24.60
2015,07,28,13,05,24.70
2015,07,28,13,06,24.70
2015,07,28,13,07,24.80
2015,07,28,13,08,24.80
2015,07,28,13,09,24.90
2015,07,28,13,10,24.80
2015,07,28,13,11,24.80
2015,07,28,13,12,24.80
2015,07,28,13,13,24.80
2015,07,28,13,14,24.80
2015,07,28,13,15,24.80
2015,07,28,13,16,24.80
2015,07,28,13,17,24.90
2015,07,28,13,18,25.00
2015,07,28,13,19,25.00
2015,07,28,13,20,25.10
2015,07,28,13,21,25.10
2015,07,28,13,22,25.10
2015,07,28,13,23,25.20
2015,07,28,13,24,25.20
2015,07,28,13,25,25.20
2015,07,28,13,26,25.10
2015,07,28,13,27,25.10
2015,07,28,13,28,25.10
2015,07,28,13,29,25.20
2015,07,28,13,30,25.30
2015,07,28,13,31,25.30
2015,07,28,13,32,25.30
2015,07,28,13,33,25.30
2015,07,28,13,34,25.30
2015,07,28,13,35,25.40
2015,07,28,13,36,25.40
2015,07,28,13,37,25.50
2015,07,28,13,38,25.50
2015,07,28,13,39,25.50
2015,07,28,13,40,25.60
2015,07,28,13,41,25.60
2015,07,28,13,42,25.60
2015,07,28,13,43,25.60
2015,07,28,13,44,25.60
2015,07,28,13,45,25.50
2015,07,28,13,46,25.50
2015,07,28,13,47,25.60
2015,07,28,13,48,25.60
2015,07,28,13,49,25.60
2015,07,28,13,50,25.60
2015,07,28,13,51,25.60
2015,07,28,13,52,25.70
2015,07,28,13,53,25.70
2015,07,28,13,54,25.80
2015,07,28,13,55,25.80
2015,07,28,13,56,25.80
2015,07,28,13,57,25.80
2015,07,28,13,58,25.80
2015,07,28,13,59,25.80
2015,07,28,14,00,25.80
2015,07,28,14,01,25.80
2015,07,28,14,02,25.80
2015,07,28,14,03,25.80
2015,07,28,14,04,25.80
2015,07,28,14,05,25.80
2015,07,28,14,06,25.70
2015,07,28,14,07,25.70
2015,07,28,14,08,25.80
2015,07,28,14,09,25.80
2015,07,28,14,10,25.80
2015,07,28,14,11,25.80
2015,07,28,14,12,25.80
2015,07,28,14,13,25.80
2015,07,28,14,14,25.70
2015,07,28,14,15,25.70
2015,07,28,14,16,25.70
2015,07,28,14,17,25.70
2015,07,28,14,18,25.80
2015,07,28,14,19,25.80
2015,07,28,14,20,25.80
2015,07,28,14,21,25.90
2015,07,28,14,22,25.90
2015,07,28,14,23,25.90
2015,07,28,14,24,26.00
2015,07,28,14,25,26.10
2015,07,28,14,26,26.10
2015,07,28,14,27,26.20
2015,07,28,14,28,26.30
2015,07,28,14,29,26.30
2015,07,28,14,30,26.30
2015,07,28,14,31,26.30
2015,07,28,14,32,26.30
2015,07,28,14,33,26.30
2015,07,28,14,34,26.30
2015,07,28,14,35,26.30
2015,07,28,14,36,26.30
2015,07,28,14,37,26.40
2015,07,28,14,38,26.40
2015,07,28,14,39,26.50
2015,07,28,14,40,26.50
2015,07,28,14,41,26.60
2015,07,28,14,42,26.60
2015,07,28,14,43,26.50
2015,07,28,14,44,26.40
2015,07,28,14,45,26.40
2015,07,28,14,46,26.40
2015,07,28,14,47,26.50
2015,07,28,14,48,26.50
2015,07,28,14,49,26.50
2015,07,28,14,50,26.50
2015,07,28,14,51,26.50
2015,07,28,14,52,26.60
2015,07,28,14,53,26.60
2015,07,28,14,54,26.60
2015,07,28,14,55,26.60
2015,07,28,14,56,26.70
2015,07,28,14,57,26.70
2015,07,28,14,58,26.70
2015,07,28,14,59,26.70
2015,07,28,15,00,26.70
2015,07,28,15,01,26.80
2015,07,28,15,02,26.70
2015,07,28,15,03,26.70
2015,07,28,15,04,26.70
2015,07,28,15,05,26.70
2015,07,28,15,06,26.70
2015,07,28,15,07,26.70
2015,07,28,15,08,26.70
2015,07,28,15,09,26.60
2015,07,28,15,10,26.60
2015,07,28,15,11,26.60
2015,07,28,15,12,26.50
2015,07,28,15,13,26.50
2015,07,28,15,14,26.40
2015,07,28,15,15,26.40
2015,07,28,15,16,26.30
2015,07,28,15,17,26.30
2015,07,28,15,18,26.40
2015,07,28,15,19,26.40
2015,07,28,15,20,26.40
2015,07,28,15,21,26.40
2015,07,28,15,22,26.40
2015,07,28,15,23,26.50
2015,07,28,15,24,26.50
2015,07,28,15,25,26.50
2015,07,28,15,26,26.50
2015,07,28,15,27,26.60
2015,07,28,15,28,26.60
2015,07,28,15,29,26.60
2015,07,28,15,30,26.60
2015,07,28,15,31,26.60
2015,07,28,15,32,26.60
2015,07,28,15,33,26.60
2015,07,28,15,34,26.70
2015,07,28,15,35,26.70
2015,07,28,15,36,26.80
2015,07,28,15,37,26.80
2015,07,28,15,38,26.80
2015,07,28,15,39,26.80
2015,07,28,15,40,26.70
2015,07,28,15,41,26.80
2015,07,28,15,42,26.80
2015,07,28,15,43,26.80
2015,07,28,15,44,26.80
2015,07,28,15,45,26.80
2015,07,28,15,46,26.80
2015,07,28,15,47,26.80
2015,07,28,15,48,26.80
2015,07,28,15,49,26.70
2015,07,28,15,50,26.70
2015,07,28,15,51,26.70
2015,07,28,15,52,26.70
2015,07,28,15,53,26.60
2015,07,28,15,54,26.60
2015,07,28,15,55,26.50
2015,07,28,15,56,26.50
2015,07,28,15,57,26.60
2015,07,28,15,58,26.60
2015,07,28,15,59,26.60
2015,07,28,16,00,26.60
2015,07,28,16,01,26.60
2015,07,28,16,02,26.60
2015,07,28,16,03,26.60
2015,07,28,16,04,26.70
2015,07,28,16,05,26.70
2015,07,28,16,06,26.80
2015,07,28,16,07,26.80
2015,07,28,16,08,26.80
2015,07,28,16,09,26.80
2015,07,28,16,10,26.80
2015,07,28,16,11,26.70
2015,07,28,16,12,26.70
2015,07,28,16,13,26.70
2015,07,28,16,14,26.60
2015,07,28,16,15,26.60
2015,07,28,16,16,26.60
2015,07,28,16,17,26.60
2015,07,28,16,18,26.60
2015,07,28,16,19,26.60
2015,07,28,16,20,26.60
2015,07,28,16,21,26.60
2015,07,28,16,22,26.60
2015,07,28,16,23,26.60
2015,07,28,16,24,26.60
2015,07,28,16,25,26.60
2015,07,28,16,26,26.60
2015,07,28,16,27,26.60
2015,07,28,16,28,26.60
2015,07,28,16,29,26.60
2015,07,28,16,30,26.60
2015,07,28,16,31,26.60
2015,07,28,16,32,26.50
2015,07,28,16,33,26.50
2015,07,28,16,34,26.50
2015,07,28,16,35,26.50
2015,07,28,16,36,26.60
2015,07,28,16,37,26.60
2015,07,28,16,38,26.70
2015,07,28,16,39,26.80
2015,07,28,16,40,26.80
2015,07,28,16,41,26.80
2015,07,28,16,42,26.80
2015,07,28,16,43,26.80
2015,07,28,16,44,26.90
2015,07,28,16,45,26.90
2015,07,28,16,46,26.90
2015,07,28,16,47,26.80
2015,07,28,16,48,26.80
2015,07,28,16,49,26.70
2015,07,28,16,50,26.70
2015,07,28,16,51,26.80
2015,07,28,16,52,26.80
2015,07,28,16,53,26.80
2015,07,28,16,54,26.80
2015,07,28,16,55,26.80
2015,07,28,16,56,26.90
2015,07,28,16,57,26.90
2015,07,28,16,58,26.90
2015,07,28,16,59,26.90
2015,07,28,17,00,26.90
2015,07,28,17,01,26.90
2015,07,28,17,02,26.80
2015,07,28,17,03,26.80
2015,07,28,17,04,26.70
2015,07,28,17,05,26.70
2015,07,28,17,06,26.70
2015,07,28,17,07,26.70
2015,07,28,17,08,26.70
2015,07,28,17,09,26.70
2015,07,28,17,10,26.70
2015,07,28,17,11,26.80
2015,07,28,17,12,26.80
2015,07,28,17,13,26.80
2015,07,28,17,14,26.80
2015,07,28,17,15,26.80
2015,07,28,17,16,26.80
2015,07,28,17,17,26.70
2015,07,28,17,18,26.70
2015,07,28,17,19,26.60